Location: Chervonnoye
(48.6000°N, 34.4000°E)
Time: 06:08:17
(UTC+00:00)

BEESAT 3 - Pass Details

Date: 11 December 2021
Orbit: 472 x 512 km, 64.9° (Epoch: 22 January)

Event Time Altitude Azimuth Distance (km) Brightness Sun altitude
Rises 15:54:10 0° 232° (SW) 2,555 ? -20.0°
Reaches altitude 10° 15:56:20 10° 238° (WSW) 1,685 ? -20.4°
Maximum altitude 16:00:00 49° 314° (NW) 655 ? -21.0°
Enters shadow 16:00:57 38° 358° (N) 773 ? -21.1°
